Home > Time Zones > World Clock > Weather > Germany > Ulm > Past weeks

Flag for Germany Weather past 2 weeks in Ulm, Baden-Württemberg, Germany

Now
36 °F

Partly sunny.


Feels Like: 30 °F
Forecast: 31 / 37 °F
Wind: 7 mph from Southwest

Location: Laupheim Airport

Current Time: Mar 4, 2015 at 8:16:03 AM

Latest Report: Mar 4, 2015 at 7:20 AM


Visibility: N/A

Pressure: 30.24 "Hg

Humidity: 87%

Dew point: 32 °F

Location of UlmLocation

Historic Weather in Ulm — Graph

°F

Ulm temperature yesterday

Maximum temperature yesterday: 46 °F (at 3:20 PM)
Minimum temperature yesterday: 32 °F (at 6:20 AM)
Average temperature yesterday: 39 °F

Past Weeks' High & Low Weather Summary

 TemperatureHumidityPressure
High48 °F (Feb 20, 2:20 PM)100% (Feb 17, 6:20 AM)30.66 "Hg (Feb 17, 6:20 AM)
Low23 °F (Feb 26, 6:20 AM)39% (Feb 26, 3:20 PM)29.50 "Hg (Feb 21, 12:20 PM)
Average34 °F85%30.00 "Hg
* Reported Feb 17 6:20 AM — Mar 4 6:20 AM, Ulm, Weather by CustomWeather, © 2015

Note: Actual official high and low records may vary slightly from our data, if they occured in-between our weather recording intervals... More about our weather records

Advertising

Ulm weather history for previous 24 hours

 ConditionsComfort  
Time TempWeatherWind HumidityBarometerVisibility
6:20 AM
Wed, Mar 4
36 °FPartly cloudy.5 mph87%30.21 "HgN/A
5:20 AM36 °FPartly cloudy.7 mph87%30.21 "HgN/A
4:20 AM36 °FLight rain. Partly cloudy.7 mph87%30.18 "HgN/A
3:20 AM37 °FLight rain. Passing clouds.9 mph81%30.18 "HgN/A
2:20 AM39 °FLight rain. Passing clouds.12 mph87%30.15 "HgN/A
1:20 AM41 °FLight rain. Passing clouds.15 mph70%30.12 "HgN/A
12:20 AM43 °FPassing clouds.16 mph61%30.12 "HgN/A
11:20 PM
Tue, Mar 3
41 °FPassing clouds.9 mph66%30.12 "HgN/A
10:20 PM41 °FPassing clouds.9 mph66%30.12 "HgN/A
9:20 PM41 °FPassing clouds.8 mph66%30.12 "HgN/A
8:20 PM41 °FPassing clouds.9 mph66%30.12 "HgN/A
7:20 PM41 °FPassing clouds.7 mph66%30.12 "HgN/A
6:20 PM43 °FPassing clouds.8 mph61%30.09 "HgN/A
5:20 PM46 °FScattered clouds.10 mph50%30.12 "HgN/A
5:00 PM45 °FScattered clouds.8 mph57%30.12 "HgN/A
4:20 PM46 °FPassing clouds.10 mph50%30.12 "HgN/A
3:20 PM46 °FPassing clouds.13 mph50%30.12 "HgN/A
2:20 PM45 °FPassing clouds.13 mph53%30.15 "HgN/A
1:20 PM45 °FPassing clouds.13 mph49%30.18 "HgN/A
12:20 PM43 °FPassing clouds.14 mph57%30.18 "HgN/A
11:20 AM41 °FPassing clouds.10 mph61%30.21 "HgN/A
10:20 AM37 °FPassing clouds.13 mph70%30.21 "HgN/A
9:20 AM36 °FScattered clouds.13 mph75%30.21 "HgN/A
8:20 AM34 °FScattered clouds.7 mph81%30.18 "HgN/A
Weather by CustomWeather, © 2015

See weather overviewHow to use our weather pages